Location: Sigmaringen
(48.0900°N, 9.2120°E)
Time: 22:39:21
(UTC+01:00)

ISS - Pass Details

Date: 17 November 2017
Orbit: 402 x 407 km, 51.6° (Epoch: 19 November)

Event Time Altitude Azimuth Distance (km) Brightness Sun altitude
Exits shadow 04:48:26 14° 132° (SE) 1,219 -0.9 -27.2°
Drops below altitude 10° 04:49:01 10° 129° (SE) 1,450 -0.4 -27.1°
Sets 04:51:06 0° 126° (SE) 2,307 0.8 -26.8°
